| time (UTC) | temp F | wind direction | speed knots | gust knots | rain 1hr in | rain 24hr in | rain mn in | humidity % | barometer mb |
| 20260506165015 | 72 | 135 | 9.6 | 19.1 | 0.00 | 0.00 | 0.00 | 48 | 1002.2 |
| 20260506164016 | 72 | 135 | 10.4 | 15.6 | 0.00 | 0.00 | 0.00 | 48 | 1002.3 |
| 20260506163016 | 73 | 135 | 8.7 | 15.6 | 0.00 | 0.00 | 0.00 | 48 | 1002.4 |
| 20260506162016 | 73 | 158 | 7.8 | 13.0 | 0.00 | 0.00 | 0.00 | 48 | 1002.5 |
| 20260506161016 | 73 | 158 | 9.6 | 20.0 | 0.00 | 0.00 | 0.00 | 47 | 1002.6 |
| 20260506160016 | 74 | 158 | 12.2 | 21.7 | 0.00 | 0.00 | 0.00 | 45 | 1002.5 |
| 20260506155035 | 75 | 135 | 9.6 | 19.1 | 0.00 | 0.00 | 0.00 | 45 | 1002.6 |
| 20260506154015 | 75 | 135 | 10.4 | 20.9 | 0.00 | 0.00 | 0.00 | 44 | 1002.7 |
| 20260506153016 | 75 | 135 | 11.3 | 20.0 | 0.00 | 0.00 | 0.00 | 43 | 1002.8 |
| 20260506152015 | 75 | 135 | 10.4 | 21.7 | 0.00 | 0.00 | 0.00 | 43 | 1002.8 |
| 20260506151036 | 76 | 158 | 11.3 | 19.1 | 0.00 | 0.00 | 0.00 | 42 | 1002.9 |
| 20260506150015 | 77 | 135 | 12.2 | 22.6 | 0.00 | 0.00 | 0.00 | 41 | 1002.9 |
| 20260506145017 | 77 | 158 | 10.4 | 16.5 | 0.00 | 0.00 | 0.00 | 41 | 1002.9 |
| 20260506144015 | 77 | 135 | 10.4 | 20.0 | 0.00 | 0.00 | 0.00 | 41 | 1002.9 |
| 20260506143036 | 77 | 135 | 10.4 | 19.1 | 0.00 | 0.00 | 0.00 | 40 | 1002.9 |
| 20260506142036 | 77 | 135 | 11.3 | 21.7 | 0.00 | 0.00 | 0.00 | 40 | 1003.1 |
| 20260506141015 | 78 | 135 | 11.3 | 23.5 | 0.00 | 0.00 | 0.00 | 40 | 1003.3 |
| 20260506140036 | 78 | 135 | 10.4 | 20.0 | 0.00 | 0.00 | 0.00 | 39 | 1003.4 |
| 20260506135016 | 78 | 135 | 12.2 | 23.5 | 0.00 | 0.00 | 0.00 | 40 | 1003.6 |
| 20260506134015 | 78 | 135 | 10.4 | 18.2 | 0.00 | 0.00 | 0.00 | 41 | 1003.8 |
| 20260506133016 | 77 | 135 | 11.3 | 19.1 | 0.00 | 0.00 | 0.00 | 41 | 1003.8 |
| 20260506132037 | 76 | 135 | 11.3 | 19.1 | 0.00 | 0.00 | 0.00 | 43 | 1004.0 |
| 20260506131015 | 74 | 135 | 11.3 | 21.7 | 0.00 | 0.00 | 0.00 | 44 | 1004.1 |
| 20260506130016 | 73 | 135 | 8.7 | 16.5 | 0.00 | 0.00 | 0.00 | 46 | 1004.2 |
| 20260506125016 | 73 | 113 | 10.4 | 18.2 | 0.00 | 0.00 | 0.00 | 45 | 1004.3 |
| 20260506124016 | 73 | 135 | 10.4 | 18.2 | 0.00 | 0.00 | 0.00 | 47 | 1004.6 |
| 20260506123016 | 73 | 135 | 7.8 | 13.9 | 0.00 | 0.00 | 0.00 | 45 | 1004.7 |
| 20260506122017 | 73 | 135 | 7.8 | 16.5 | 0.00 | 0.00 | 0.00 | 47 | 1005.0 |
| 20260506121035 | 73 | 113 | 13.0 | 20.0 | 0.00 | 0.00 | 0.00 | 46 | 1005.1 |
| 20260506120016 | 74 | 135 | 11.3 | 21.7 | 0.00 | 0.00 | 0.00 | 45 | 1005.1 |
| 20260506115018 | 75 | 135 | 10.4 | 20.9 | 0.00 | 0.00 | 0.00 | 45 | 1005.1 |
| 20260506114036 | 76 | 135 | 10.4 | 20.9 | 0.00 | 0.00 | 0.00 | 44 | 1005.3 |
| 20260506113016 | 75 | 135 | 11.3 | 23.5 | 0.00 | 0.00 | 0.00 | 45 | 1005.4 |
| 20260506112036 | 75 | 135 | 12.2 | 20.0 | 0.00 | 0.00 | 0.00 | 47 | 1005.5 |
| 20260506111016 | 75 | 135 | 12.2 | 20.0 | 0.00 | 0.00 | 0.00 | 46 | 1005.7 |
| 20260506110016 | 75 | 135 | 10.4 | 17.4 | 0.00 | 0.00 | 0.00 | 47 | 1005.8 |
| 20260506105058 | 75 | 135 | 12.2 | 18.2 | 0.00 | 0.00 | 0.00 | 46 | 1005.9 |
| 20260506104016 | 75 | 135 | 10.4 | 18.2 | 0.00 | 0.00 | 0.00 | 44 | 1006.0 |
| 20260506103036 | 74 | 135 | 11.3 | 15.6 | 0.00 | 0.00 | 0.00 | 49 | 1006.0 |
| 20260506102016 | 74 | 135 | 10.4 | 16.5 | 0.00 | 0.00 | 0.00 | 48 | 1006.1 |
| 20260506101016 | 75 | 135 | 7.8 | 13.0 | 0.00 | 0.00 | 0.00 | 48 | 1006.2 |
| 20260506100036 | 73 | 113 | 7.8 | 14.8 | 0.00 | 0.00 | 0.00 | 49 | 1006.4 |
| 20260506095016 | 73 | 135 | 8.7 | 13.9 | 0.00 | 0.00 | 0.00 | 50 | 1006.5 |
| 20260506094016 | 73 | 135 | 7.8 | 12.2 | 0.00 | 0.00 | 0.00 | 52 | 1006.6 |
| 20260506093016 | 73 | 135 | 7.8 | 11.3 | 0.00 | 0.00 | 0.00 | 49 | 1006.8 |
| 20260506092016 | 73 | 113 | 6.1 | 12.2 | 0.00 | 0.00 | 0.00 | 51 | 1006.9 |
| 20260506091016 | 72 | 135 | 6.1 | 10.4 | 0.00 | 0.00 | 0.00 | 50 | 1006.8 |
| 20260506090016 | 73 | 113 | 6.1 | 13.0 | 0.00 | 0.00 | 0.00 | 49 | 1006.8 |
| 20260506084016 | 72 | 135 | 4.3 | 7.8 | 0.00 | 0.00 | 0.00 | 51 | 1007.0 |
| 20260506083016 | 71 | 0 | 2.6 | 9.6 | 0.00 | 0.00 | 0.00 | 53 | 1007.1 |
| 20260506082016 | 71 | 135 | 2.6 | 5.2 | 0.00 | 0.00 | 0.00 | 51 | 1007.2 |
| 20260506081036 | 70 | 293 | 1.7 | 5.2 | 0.00 | 0.00 | 0.00 | 53 | 1007.2 |
| 20260506073016 | 67 | 270 | 2.6 | 5.2 | 0.00 | 0.00 | 0.00 | 60 | 1007.3 |
| 20260506072016 | 66 | 315 | 2.6 | 5.2 | 0.00 | 0.00 | 0.00 | 62 | 1007.5 |
| 20260506071016 | 65 | 270 | 4.3 | 7.0 | 0.00 | 0.00 | 0.00 | 61 | 1007.5 |
| 20260506062056 | 62 | 270 | 3.5 | 6.1 | 0.00 | 0.00 | 0.00 | 68 | 1007.8 |
| 20260506061036 | 62 | 293 | 3.5 | 7.0 | 0.00 | 0.00 | 0.00 | 70 | 1007.7 |
| 20260506051016 | 60 | 270 | 5.2 | 10.4 | 0.00 | 0.00 | 0.00 | 73 | 1007.8 |
| 20260506045016 | 58 | 293 | 4.3 | 7.0 | 0.00 | 0.00 | 0.00 | 76 | 1007.6 |
| 20260506044016 | 58 | 293 | 4.3 | 7.0 | 0.00 | 0.00 | 0.00 | 76 | 1007.6 |
| 20260506042016 | 58 | 293 | 4.3 | 8.7 | 0.00 | 0.00 | 0.00 | 77 | 1007.4 |
| 20260506041016 | 57 | 293 | 4.3 | 7.8 | 0.00 | 0.00 | 0.00 | 78 | 1007.3 |
| 20260506040016 | 57 | 293 | 4.3 | 6.1 | 0.00 | 0.00 | 0.00 | 78 | 1007.1 |
| 20260506035036 | 57 | 293 | 4.3 | 6.1 | 0.00 | 0.00 | 0.00 | 79 | 1007.1 |
| 20260506034016 | 57 | 270 | 3.5 | 5.2 | 0.00 | 0.00 | 0.00 | 78 | 1007.1 |
| 20260506033016 | 58 | 270 | 3.5 | 5.2 | 0.00 | 0.00 | 0.00 | 78 | 1007.1 |
| 20260506032016 | 58 | 293 | 2.6 | 5.2 | 0.00 | 0.00 | 0.00 | 77 | 1007.0 |
| 20260506031016 | 58 | 270 | 2.6 | 6.1 | 0.00 | 0.00 | 0.00 | 77 | 1007.2 |
| 20260506030016 | 58 | 270 | 2.6 | 7.8 | 0.00 | 0.00 | 0.00 | 77 | 1007.1 |
| 20260506025036 | 58 | 270 | 2.6 | 7.0 | 0.00 | 0.00 | 0.00 | 77 | 1007.3 |
| 20260506024016 | 58 | 270 | 4.3 | 10.4 | 0.00 | 0.00 | 0.00 | 77 | 1007.3 |
| 20260506023017 | 58 | 248 | 2.6 | 7.0 | 0.00 | 0.00 | 0.00 | 77 | 1007.2 |
| 20260506022016 | 58 | 270 | 3.5 | 7.8 | 0.00 | 0.00 | 0.00 | 77 | 1007.1 |
| 20260506021016 | 58 | 270 | 3.5 | 7.0 | 0.00 | 0.00 | 0.00 | 77 | 1007.0 |
| 20260506020016 | 57 | 270 | 3.5 | 5.2 | 0.00 | 0.00 | 0.00 | 79 | 1007.0 |
| 20260506015016 | 56 | 293 | 3.5 | 5.2 | 0.00 | 0.00 | 0.00 | 79 | 1006.8 |
| 20260506014016 | 56 | 315 | 1.7 | 3.5 | 0.00 | 0.00 | 0.00 | 77 | 1006.7 |
| 20260506013036 | 57 | 293 | 1.7 | 3.5 | 0.00 | 0.00 | 0.00 | 77 | 1006.7 |
| 20260506012016 | 57 | 293 | 1.7 | 3.5 | 0.00 | 0.00 | 0.00 | 77 | 1006.6 |
| 20260506011017 | 58 | 315 | 0.9 | 2.6 | 0.00 | 0.00 | 0.00 | 76 | 1006.5 |
| 20260506010036 | 58 | 293 | 1.7 | 3.5 | 0.00 | 0.00 | 0.00 | 77 | 1006.4 |
| 20260506005016 | 57 | 270 | 1.7 | 4.3 | 0.00 | 0.00 | 0.00 | 78 | 1006.3 |
| 20260506004016 | 57 | 0.0 | 0.0 | 0.00 | 0.00 | 0.00 | 76 | 1006.2 | |
| 20260506003018 | 58 | 270 | 0.9 | 1.7 | 0.00 | 0.00 | 0.00 | 74 | 1005.9 |
| 20260506001017 | 58 | 270 | 2.6 | 5.2 | 0.00 | 0.00 | 0.00 | 76 | 1005.8 |
| 20260506000016 | 57 | 270 | 2.6 | 5.2 | 0.00 | 0.00 | 0.00 | 77 | 1005.6 |
| 20260505234016 | 56 | 338 | 1.7 | 2.6 | 0.00 | 0.00 | 0.00 | 77 | 1005.4 |
| 20260505233016 | 56 | 315 | 0.9 | 3.5 | 0.00 | 0.00 | 0.00 | 77 | 1005.4 |
| 20260505232016 | 56 | 315 | 0.9 | 1.7 | 0.00 | 0.00 | 0.00 | 77 | 1005.3 |
| 20260505231016 | 55 | 315 | 1.7 | 3.5 | 0.00 | 0.00 | 0.00 | 78 | 1005.2 |
| 20260505230017 | 55 | 293 | 1.7 | 2.6 | 0.00 | 0.00 | 0.00 | 77 | 1005.1 |
| 20260505225016 | 55 | 293 | 1.7 | 3.5 | 0.00 | 0.00 | 0.00 | 76 | 1004.9 |
| 20260505224016 | 55 | 293 | 1.7 | 3.5 | 0.00 | 0.00 | 0.00 | 75 | 1004.7 |
| 20260505223016 | 55 | 248 | 0.9 | 2.6 | 0.00 | 0.00 | 0.00 | 74 | 1004.5 |
| 20260505222016 | 55 | 338 | 0.9 | 2.6 | 0.00 | 0.00 | 0.00 | 73 | 1004.3 |
| 20260505221016 | 55 | 338 | 1.7 | 3.5 | 0.00 | 0.00 | 0.00 | 72 | 1004.3 |
| 20260505220016 | 55 | 338 | 0.9 | 2.6 | 0.00 | 0.00 | 0.00 | 71 | 1004.3 |
| 20260505215016 | 56 | 0 | 0.9 | 2.6 | 0.00 | 0.00 | 0.00 | 70 | 1004.2 |
| 20260505214016 | 56 | 338 | 1.7 | 2.6 | 0.00 | 0.00 | 0.00 | 68 | 1004.1 |
| 20260505213016 | 58 | 0 | 0.9 | 2.6 | 0.00 | 0.00 | 0.00 | 66 | 1004.1 |
| 20260505212038 | 59 | 68 | 0.9 | 2.6 | 0.00 | 0.00 | 0.00 | 64 | 1003.9 |
| 20260505211019 | 60 | 90 | 1.7 | 4.3 | 0.00 | 0.00 | 0.00 | 63 | 1003.9 |
| 20260505210016 | 60 | 90 | 1.7 | 4.3 | 0.00 | 0.00 | 0.00 | 62 | 1003.9 |
| 20260505205016 | 60 | 90 | 2.6 | 5.2 | 0.00 | 0.00 | 0.00 | 61 | 1003.7 |
| 20260505203056 | 61 | 90 | 1.7 | 5.2 | 0.00 | 0.00 | 0.00 | 59 | 1003.6 |
| 20260505202016 | 62 | 135 | 2.6 | 7.8 | 0.00 | 0.00 | 0.00 | 58 | 1003.4 |
| 20260505201016 | 62 | 113 | 3.5 | 6.1 | 0.00 | 0.00 | 0.00 | 57 | 1003.4 |
| 20260505200016 | 63 | 113 | 4.3 | 9.6 | 0.00 | 0.00 | 0.00 | 56 | 1003.3 |
| 20260505195016 | 63 | 113 | 4.3 | 7.0 | 0.00 | 0.00 | 0.00 | 55 | 1003.3 |
| 20260505194016 | 64 | 135 | 5.2 | 8.7 | 0.00 | 0.00 | 0.00 | 54 | 1003.2 |
| 20260505193018 | 64 | 113 | 6.1 | 11.3 | 0.00 | 0.00 | 0.00 | 53 | 1003.3 |
| 20260505192016 | 65 | 135 | 5.2 | 11.3 | 0.00 | 0.00 | 0.00 | 53 | 1003.2 |
| 20260505191036 | 65 | 113 | 6.1 | 10.4 | 0.00 | 0.00 | 0.00 | 52 | 1003.1 |
| 20260505190036 | 66 | 135 | 6.1 | 12.2 | 0.00 | 0.00 | 0.00 | 51 | 1003.2 |
| 20260505185016 | 66 | 135 | 6.1 | 12.2 | 0.00 | 0.00 | 0.00 | 50 | 1003.1 |
| 20260505184036 | 67 | 135 | 6.1 | 9.6 | 0.00 | 0.00 | 0.00 | 49 | 1003.2 |
| 20260505183016 | 67 | 135 | 6.1 | 10.4 | 0.00 | 0.00 | 0.00 | 48 | 1003.1 |
| 20260505181017 | 69 | 135 | 7.8 | 15.6 | 0.00 | 0.00 | 0.00 | 46 | 1003.1 |
| 20260505180016 | 70 | 135 | 7.0 | 11.3 | 0.00 | 0.00 | 0.00 | 45 | 1002.9 |
| 20260505175016 | 70 | 135 | 10.4 | 18.2 | 0.00 | 0.00 | 0.00 | 44 | 1003.0 |
| 20260505174016 | 71 | 135 | 8.7 | 16.5 | 0.00 | 0.00 | 0.00 | 44 | 1002.9 |
| 20260505173016 | 72 | 135 | 10.4 | 17.4 | 0.00 | 0.00 | 0.00 | 43 | 1002.9 |
| 20260505172016 | 72 | 135 | 10.4 | 17.4 | 0.00 | 0.00 | 0.00 | 43 | 1002.9 |
| 20260505171036 | 72 | 135 | 8.7 | 13.9 | 0.00 | 0.00 | 0.00 | 43 | 1003.1 |
| 20260505170016 | 73 | 135 | 8.7 | 16.5 | 0.00 | 0.00 | 0.00 | 43 | 1003.1 |